Meteo Giornale » Osservazioni meteo Francia » Melun

ore: 19:30 - Osservazioni Meteo Melun
Lat. 48° 37' N Lon. 2° 41' E Alt. 95 metri s.l.m.

sereno Europe/Paris

20 °C

Sereno

Temp. 24 Ore

14 °C

22 °C

Nord

3.7 Km/h

Dew point 15 °C

Umidità 72 %

Visibilità  10 Km

Il sole sorge alle ore 07:30

Il sole tramonta alle ore 19:55

Data e Ora Cielo e Fenomeni T °C DP °C Um. % Pres. hPa Vis. km Vento km/h
Oggi h: 19:30 sereno Sereno 20 15 72 1014 10 N 3.7
Oggi h: 19:00 sereno Sereno 21 14 64 1014 10 N 5.5
Oggi h: 18:30 sereno Sereno 21 14 64 1014 10 N 5.5
Oggi h: 18:00 sereno Sereno 21 14 64 1014 10 N 5.5
Oggi h: 17:30 sereno Sereno 22 14 60 1014 10 N 9.3
Oggi h: 16:30 molto_nuvoloso Molto Nuvoloso 22 14 60 1014 10 N 11.1
Oggi h: 16:00 molto_nuvoloso Molto Nuvoloso 22 14 60 1014 10 N/NO 11.1
Oggi h: 15:30 nuvoloso Nuvoloso 21 14 64 1014 10 N/NE 9.3
Oggi h: 14:30 sereno Sereno 21 14 64 1014 10 N 5.5
Oggi h: 14:00 sereno Sereno 20 14 68 1013 10 N/NO 7.4
Oggi h: 13:30 sereno Sereno 21 14 64 1013 10 N 9.3
Oggi h: 13:00 sereno Sereno 20 14 68 1013 10 N/NO 14.8
Oggi h: 12:30 sereno Sereno 20 14 68 1013 10 NO 13
Oggi h: 11:30 sereno Sereno 17 14 82 1013 10 NO 11.1
Oggi h: 11:00 sereno Sereno 16 13 82 1013 10 N 5.5
Oggi h: 10:30 sereno Sereno 16 13 82 1012 10 N 5.5
Oggi h: 10:00 sereno Sereno 16 13 82 1012 10 N 3.7
Oggi h: 09:30 sereno Sereno 16 13 82 1012 10 N 7.4
Oggi h: 09:00 sereno Sereno 15 13 87 1011 10 N 7.4
Oggi h: 08:30 sereno Sereno 14 13 93 1011 10 N 7.4
Oggi h: 08:00 sereno Sereno 14 13 93 1011 10 N 5.5
Oggi h: 07:30 sereno Sereno 14 13 93 1011 10 N 5.5
Oggi h: 07:00 sereno Sereno 15 13 87 1011 10 N 9.3
Oggi h: 06:30 sereno Sereno 15 14 93 1010 10 N 9.3
Oggi h: 06:00 sereno Sereno 15 14 93 1010 10 N 9.3
Oggi h: 05:30 sereno Sereno 16 14 87 1010 10 N/NO 7.4
Oggi h: 05:00 sereno Sereno 16 15 93 1011 10 N 7.4
Oggi h: 04:30 coperto Coperto 17 15 88 1011 10 N/NO 7.4
Oggi h: 04:00 coperto Coperto 17 15 88 1011 10 N 5.5
Oggi h: 03:30 coperto Coperto 17 15 88 1011 10 N/NO 9.3
Oggi h: 03:00 molto_nuvoloso Molto Nuvoloso 17 15 88 1011 10 N 11.1
Oggi h: 02:30 molto_nuvoloso Molto Nuvoloso 17 15 88 1011 10 N 13
Oggi h: 02:00 sereno Sereno 17 15 88 1011 10 N/NO 11.1
Oggi h: 01:30 sereno Sereno 16 15 93 1011 10 N/NO 9.3
Oggi h: 01:00 sereno Sereno 17 15 88 1011 10 N/NO 9.3
Oggi h: 00:30 sereno Sereno 17 16 93 1011 10 N/NO 13
Oggi h: 00:00 sereno Sereno 17 16 93 1012 10 O 7.4
Ieri h: 23:30 coperto_pioggia Pioggia Debole 18 15 82 1012 10 NO 7.4
Ieri h: 23:00 sereno Sereno 18 15 82 1012 10 O/NO 11.1
Ieri h: 22:30 sereno Sereno 18 15 82 1013 10 O 11.1
Ieri h: 22:00 sereno Sereno 18 15 82 1013 10 O 11.1
Ieri h: 21:30 coperto Coperto 19 16 82 1013 10 O 9.3
Ieri h: 21:00 coperto Coperto 19 15 77 1013 10 O 13